Location: Tyler Bend Campground
(35.9875°N, 92.7606°W)
Time: 14:03:12
(UTC-06:00)

CZ-2C R/B - Visible Passes

Search period start: 18 January 2017 00:00
Search period end: 28 January 2017 00:00
Orbit: 668 x 785 km, 98.1° (Epoch: 18 January)

Date Brightness Start Highest point End Pass type
(mag) Time Alt. Az. Time Alt. Az. Time Alt. Az.
18 Jan 5.4 05:15:04 10° ENE 05:17:27 14° E 05:19:50 10° SE visible
18 Jan 2.5 06:51:34 10° N 06:55:56 46° WNW 07:00:17 10° SW visible
18 Jan 3.3 17:57:29 10° S 18:02:27 57° W 18:07:17 10° NNW visible
19 Jan 3.2 06:03:36 10° NNE 06:08:03 50° E 06:12:29 10° S visible
19 Jan 5.5 18:49:46 10° SW 18:52:59 17° W 18:56:10 10° NW visible
20 Jan 5.4 05:17:14 10° ENE 05:19:52 15° E 05:22:28 10° SE visible
20 Jan 3.4 17:59:57 10° S 18:04:51 53° W 18:09:38 10° NNW visible
21 Jan 3.0 06:05:56 10° NNE 06:10:26 54° E 06:14:54 10° S visible
21 Jan 5.5 18:52:27 10° SW 18:55:24 16° W 18:58:20 10° NW visible
22 Jan 5.3 05:19:25 10° NE 05:22:15 16° E 05:25:04 10° SE visible
22 Jan 3.5 18:02:26 10° S 18:07:16 49° W 18:11:58 10° NNW visible
23 Jan 2.9 06:08:17 10° NNE 06:12:48 58° E 06:17:19 10° S visible
23 Jan 5.6 18:55:08 10° SW 18:57:49 15° W 19:00:30 10° WNW visible
24 Jan 5.2 05:21:37 10° NE 05:24:38 17° E 05:27:40 10° SE visible
24 Jan 3.7 18:04:55 10° S 18:09:40 46° W 18:14:17 10° NNW visible
25 Jan 2.8 06:10:38 10° NNE 06:15:10 63° ESE 06:19:44 10° S visible
25 Jan 5.6 18:57:52 10° WSW 19:00:15 13° W 19:02:36 10° WNW visible
26 Jan 5.1 05:23:51 10° NE 05:27:02 18° E 05:30:14 10° SE visible
26 Jan 3.8 18:07:23 10° S 18:12:03 43° W 18:16:36 10° NNW visible
27 Jan 2.7 06:12:58 10° NNE 06:17:33 67° ESE 06:22:08 10° S visible
27 Jan 5.7 19:00:39 10° WSW 19:02:39 12° W 19:04:39 10° WNW visible
